logo tempoitalia

Diretta Meteo Koebenhavn-Kastrup, Danimarcalunedì 31 agosto ore 07:20

Mappa
Sereno 14 °C Nebbia 24 Ore: T.min 13 T.max 19
Ponente Nord Km/h 3.7 Punto di rugiada: 14 °C Umidità: 100% Visibilità: 10 Km
Il sole sorge alle: 06:12 Il sole tramonta alle: 20:06
31 Agosto 2026 07:20 tempo osservato: Nebbia Nebbia 14 100 1009 vento: Nord N 3.7
31 Agosto 2026 06:50 tempo osservato: Nebbia Nebbia 14 100 1009 vento: Nord N 5.5
31 Agosto 2026 06:20 tempo osservato: Nebbia Nebbia 13 100 1009 vento: Nord SO 9.3
31 Agosto 2026 05:50 tempo osservato: Nebbia Nebbia 13 100 1009 vento: Nord S/SO 7.4
31 Agosto 2026 05:20 tempo osservato: Nuvoloso Nuvoloso 14 100 1009 vento: Nord N 5.5
31 Agosto 2026 04:50 tempo osservato: Poco Nuvoloso Poco Nuvoloso 14 100 1009 vento: Nord O/SO 7.4
31 Agosto 2026 04:20 tempo osservato: Sereno Sereno 13 100 1009 vento: Nord SO 9.3
31 Agosto 2026 03:50 tempo osservato: Sereno Sereno 13 100 1010 vento: Nord O/SO 11.1
31 Agosto 2026 03:20 tempo osservato: Sereno Sereno 13 100 1009 vento: Nord O/SO 11.1
31 Agosto 2026 02:50 tempo osservato: Nuvoloso Nuvoloso 13 100 1010 vento: Nord SO 11.1
31 Agosto 2026 02:20 tempo osservato: Nuvoloso Nuvoloso 14 100 1010 vento: Nord SO 11.1
31 Agosto 2026 01:50 tempo osservato: Coperto Coperto 15 93 1010 vento: Nord SO 11.1
31 Agosto 2026 01:20 tempo osservato: Molto Nuvoloso Molto Nuvoloso 15 93 1009 vento: Nord O/SO 11.1
31 Agosto 2026 00:50 tempo osservato: Molto Nuvoloso Molto Nuvoloso 15 93 1009 vento: Nord SO 9.3
31 Agosto 2026 00:20 tempo osservato: Molto Nuvoloso Molto Nuvoloso 14 100 1009 vento: Nord S/SO 7.4
30 Agosto 2026 23:50 tempo osservato: Nuvoloso Nuvoloso 15 93 1009 vento: Nord O/SO 7.4
30 Agosto 2026 23:20 tempo osservato: Poco Nuvoloso Poco Nuvoloso 15 93 1009 vento: Nord O/SO 9.3
30 Agosto 2026 22:50 tempo osservato: Sereno Sereno 16 93 1009 vento: Nord O/SO 14.8
30 Agosto 2026 22:20 tempo osservato: Sereno Sereno 16 87 1009 vento: Nord O/SO 16.7
30 Agosto 2026 21:50 tempo osservato: Sereno Sereno 17 93 1009 vento: Nord O/SO 16.7
30 Agosto 2026 21:20 tempo osservato: Molto Nuvoloso Molto Nuvoloso 18 88 1008 vento: Nord O/SO 16.7
30 Agosto 2026 20:50 tempo osservato: Molto Nuvoloso Molto Nuvoloso 17 93 1008 vento: Nord O 13
30 Agosto 2026 20:20 tempo osservato: Molto Nuvoloso Molto Nuvoloso 18 82 1007 vento: Nord O 20.3
30 Agosto 2026 19:50 tempo osservato: Molto Nuvoloso Molto Nuvoloso 18 88 1007 vento: Nord O 29.6
30 Agosto 2026 19:20 tempo osservato: Molto Nuvoloso Molto Nuvoloso 19 88 1006 vento: Nord O 24
30 Agosto 2026 18:50 tempo osservato: Molto Nuvoloso Molto Nuvoloso 19 88 1005 vento: Nord O 25.9
30 Agosto 2026 18:20 tempo osservato: Molto Nuvoloso Molto Nuvoloso 19 93 1005 vento: Nord O 18.5
30 Agosto 2026 17:50 tempo osservato: Molto Nuvoloso Molto Nuvoloso 19 93 1004 vento: Nord O/SO 33.3
30 Agosto 2026 17:20 tempo osservato: Pioggia Pioggia 19 93 1004 vento: Nord SO 31.5
30 Agosto 2026 16:50 tempo osservato: Molto Nuvoloso Molto Nuvoloso 19 93 1003 vento: Nord S/SO 25.9
30 Agosto 2026 16:20 tempo osservato: Molto Nuvoloso Molto Nuvoloso 19 88 1004 vento: Nord S/SO 22.2
30 Agosto 2026 15:50 tempo osservato: Molto Nuvoloso Molto Nuvoloso 19 88 1004 vento: Nord S/SO 27.8
30 Agosto 2026 15:20 tempo osservato: Pioggia Pioggia 18 100 1004 vento: Nord S/SO 25.9
30 Agosto 2026 14:50 tempo osservato: Pioggia Pioggia 18 100 1003 vento: Nord S/SO 24
30 Agosto 2026 14:20 tempo osservato: Pioggia Pioggia 18 100 1003 vento: Nord S/SO 27.8
30 Agosto 2026 13:50 tempo osservato: Pioggia Pioggia 18 100 1003 vento: Nord S/SO 22.2
30 Agosto 2026 13:20 tempo osservato: Pioggia Pioggia 18 100 1003 vento: Nord S 24
30 Agosto 2026 12:50 tempo osservato: Pioggia Pioggia 18 100 1003 vento: Nord S 27.8
30 Agosto 2026 12:20 tempo osservato: Pioggia Pioggia 18 100 1003 vento: Nord S 29.6
30 Agosto 2026 12:16 tempo osservato: Pioggia Pioggia 18 100 1003 vento: Nord S 27.8
30 Agosto 2026 11:50 tempo osservato: Sereno Sereno 19 88 1003 vento: Nord S 29.6
30 Agosto 2026 11:20 tempo osservato: Sereno Sereno 19 88 1004 vento: Nord S 29.6
30 Agosto 2026 10:50 tempo osservato: Pioggia Pioggia 19 88 1004 vento: Nord S 27.8
30 Agosto 2026 10:20 tempo osservato: Pioggia Pioggia 18 93 1004 vento: Nord S 27.8
30 Agosto 2026 09:50 tempo osservato: Pioggia Pioggia 18 93 1004 vento: Nord S 25.9
30 Agosto 2026 09:20 tempo osservato: Molto Nuvoloso Molto Nuvoloso 17 100 1004 vento: Nord S 24
30 Agosto 2026 08:50 tempo osservato: Pioggia Pioggia 18 93 1004 vento: Nord S 22.2
30 Agosto 2026 08:20 tempo osservato: Pioggia Pioggia 17 93 1004 vento: Nord S 22.2
30 Agosto 2026 07:50 tempo osservato: Pioggia Pioggia 17 93 1004 vento: Nord S 22.2